NOAA 16 DEB, 41154

Orbit data source: Space-Track

NOAA 16 DEB, 41154 is space debris in SSO originally from a launch on Thu, 21 Sep 2000 UTC launched from the Air Force Western Test Range (AFWTR). Debris objects in space refer to the collection of defunct objects orbiting the Earth. Examples of debris include non-operational satellites, rocket bodies, and fragments generated from explosions, collisions, or faulty payload assembly.

Loading next visibility...
Identifier
41154, 2000-055CM
Orbit
SSO
Country
Flag of USUS
Related business
Manufacturer
Unknown
Mission
Spacecraft
Bus & Motor
Unknown
Mass
Unknown
Launch date (UTC)
2000-09-21 (25 years ago)
Launch vehicle
Unknown
Launch site
Air Force Western Test Range (AFWTR)
Object type
Payload
Rocket body
Debris
Shape & HBR
Unknown shape, 0.1 m
Radar Cross Section
Small (<0.1 m²)

Expand to show TLE details & history
Last TLE update: 3 days ago

TLE from 3 days ago
0 NOAA 16 DEB
1 41154U 00055CM  25338.51444299  .00005660  00000-0  31252-2 0  9996
2 41154  98.7745 358.9653 0056960 169.2617 190.9785 14.10978120512138
Epoch: 2025-12-04T12:20Z
TLE epoch observation values (Epoch: 2025-12-04T12:20:47.874Z)
Latitude
Longitude
100.19603°
Altitude
899.395 km
Speed
7.382 km/s
True Right ascension
23h 55m 51s
True Declination
0° 00' 00"
Sunlit
Object was in daylight at epoch
Visualization orbit readout
Latitude
Unknown
Longitude
Unknown
Altitude
Unknown
Speed
Unknown
Apparent Right ascension
Unknown
Apparent Declination
Unknown
Sunlit
N/A
Visualization observer readout
Local Sidereal Time
05:22:04
Azimuth
Unknown
Elevation
Unknown
Doppler factor
Unknown
Orbital elements
Apogee altitude
894.39 km
Perigee altitude
812.01 km
Semi-major axis
7,231.337 km
Eccentricity
0.0057
Inclination
98.7745°
RAAN
358.9653°
Arg. of periapsis
169.2617°
True anomaly
190.85506°
Mean anomaly
190.9785°
Eccentric anomaly
190.91669°
Mean motion
3.52952 °/min
Orbital period
102 mins
BSTAR
0.0031252
Loading maneuver chart data...
Computing Atmospheric mass density...
Loading historical data...
Loading historical data...
Loading historical data...
Loading historical data...
Loading historical data...
Loading historical data...
Loading historical data...

Documentation

Showing up to 5 results
|